PRMSH SBJU-SBSV

Flight info

Callsign PRMSH
Flight time 1h 56m
Altitude 5000
Route SARBO UZ77 FROTI
Aircraft E110/L-SDG/C

Departure

Time 2026-04-23 21:58
Airport Orlando Bezerra de Menezes Airport (SBJU)

Arrival

Time 2026-04-23 23:54
Airport Deputado Luiz Eduardo Magalhães International Airport (SBSV)
Time Latitude Longitude Altitude Speed Heading
2026-04-23 21:45 -7.21593 -39.27161 1357 ft 0 kts 20°
2026-04-23 21:52 -7.21592 -39.27161 1357 ft 0 kts 21°
2026-04-23 21:52 -7.21582 -39.27163 1357 ft 3 kts 309°
2026-04-23 21:53 -7.21584 -39.27181 1357 ft 2 kts 243°
2026-04-23 21:53 -7.21604 -39.27207 1358 ft 6 kts 226°
2026-04-23 21:53 -7.21644 -39.27213 1358 ft 8 kts 157°
2026-04-23 21:53 -7.21707 -39.27183 1357 ft 12 kts 152°
2026-04-23 21:54 -7.21748 -39.27166 1357 ft 8 kts 159°
2026-04-23 21:54 -7.21818 -39.27138 1357 ft 13 kts 156°
2026-04-23 21:54 -7.21876 -39.27046 1356 ft 18 kts 111°
2026-04-23 21:54 -7.21929 -39.26914 1354 ft 21 kts 110°
2026-04-23 21:55 -7.21984 -39.26756 1350 ft 25 kts 108°
2026-04-23 21:55 -7.22039 -39.26591 1346 ft 16 kts 109°
2026-04-23 21:55 -7.22082 -39.26462 1340 ft 22 kts 108°
2026-04-23 21:55 -7.22138 -39.26305 1333 ft 22 kts 109°
2026-04-23 21:56 -7.22188 -39.26186 1327 ft 9 kts 139°
2026-04-23 21:56 -7.22198 -39.26214 1328 ft 9 kts 319°
2026-04-23 21:56 -7.22178 -39.26247 1330 ft 0 kts 290°
2026-04-23 21:56 -7.22173 -39.26261 1331 ft 19 kts 288°
2026-04-23 21:57 -7.22045 -39.26606 1346 ft 81 kts 290°
2026-04-23 21:57 -7.21797 -39.27262 1359 ft 113 kts 289°
2026-04-23 21:57 -7.21543 -39.28004 1492 ft 110 kts 290°
2026-04-23 21:57 -7.21205 -39.28692 1678 ft 109 kts 301°
2026-04-23 21:58 -7.20879 -39.29389 1839 ft 111 kts 294°
2026-04-23 21:58 -7.20432 -39.30008 2027 ft 106 kts 322°
2026-04-23 21:58 -7.19736 -39.30327 2020 ft 121 kts 355°
2026-04-23 21:58 -7.18917 -39.30114 2058 ft 129 kts 37°
2026-04-23 21:59 -7.18326 -39.29398 2098 ft 137 kts 69°
2026-04-23 21:59 -7.18246 -39.28450 2238 ft 136 kts 108°
2026-04-23 21:59 -7.18835 -39.27741 2408 ft 135 kts 151°
2026-04-23 22:00 -7.20704 -39.27380 2737 ft 135 kts 160°
2026-04-23 22:00 -7.21593 -39.27069 2902 ft 133 kts 155°
2026-04-23 22:00 -7.22445 -39.26694 3070 ft 131 kts 151°
2026-04-23 22:00 -7.23274 -39.26286 3231 ft 129 kts 150°
2026-04-23 22:01 -7.24041 -39.25887 3384 ft 128 kts 149°
2026-04-23 22:01 -7.24840 -39.25457 3525 ft 128 kts 148°
2026-04-23 22:01 -7.25632 -39.25022 3666 ft 128 kts 148°
2026-04-23 22:01 -7.26426 -39.24582 3805 ft 128 kts 147°
2026-04-23 22:02 -7.27219 -39.24140 3940 ft 129 kts 147°
2026-04-23 22:02 -7.28013 -39.23697 4067 ft 129 kts 147°
2026-04-23 22:02 -7.28801 -39.23256 4202 ft 129 kts 147°
2026-04-23 22:02 -7.29591 -39.22814 4331 ft 130 kts 146°
2026-04-23 22:03 -7.30395 -39.22364 4461 ft 130 kts 146°
2026-04-23 22:03 -7.31185 -39.21921 4582 ft 130 kts 146°
2026-04-23 22:03 -7.31991 -39.21469 4705 ft 131 kts 146°
2026-04-23 22:03 -7.32782 -39.21026 4823 ft 131 kts 146°
2026-04-23 22:04 -7.33584 -39.20577 4943 ft 131 kts 146°
2026-04-23 22:04 -7.34396 -39.20121 5042 ft 133 kts 146°
2026-04-23 22:04 -7.35237 -39.19649 5028 ft 142 kts 146°
2026-04-23 22:04 -7.36130 -39.19149 5008 ft 150 kts 146°
2026-04-23 22:05 -7.37085 -39.18613 5011 ft 160 kts 146°
2026-04-23 22:05 -7.38082 -39.18055 5013 ft 168 kts 147°
2026-04-23 22:05 -7.39138 -39.17464 5005 ft 174 kts 147°
2026-04-23 22:05 -7.40216 -39.16861 5003 ft 179 kts 147°
2026-04-23 22:06 -7.41309 -39.16247 4997 ft 182 kts 147°
2026-04-23 22:06 -7.42437 -39.15614 5005 ft 183 kts 147°
2026-04-23 22:06 -7.43558 -39.14986 5008 ft 185 kts 147°
2026-04-23 22:06 -7.44703 -39.14344 5007 ft 186 kts 147°
2026-04-23 22:07 -7.45838 -39.13707 5009 ft 187 kts 147°
2026-04-23 22:07 -7.46992 -39.13060 5010 ft 187 kts 147°
2026-04-23 22:07 -7.48150 -39.12410 5012 ft 188 kts 147°
2026-04-23 22:07 -7.49297 -39.11767 5014 ft 188 kts 147°
2026-04-23 22:08 -7.50451 -39.11119 5011 ft 188 kts 147°
2026-04-23 22:08 -7.51613 -39.10468 5011 ft 188 kts 147°
2026-04-23 22:08 -7.52763 -39.09822 5009 ft 188 kts 147°
2026-04-23 22:08 -7.53920 -39.09173 5006 ft 188 kts 147°
2026-04-23 22:09 -7.55070 -39.08527 5006 ft 188 kts 147°
2026-04-23 22:09 -7.56223 -39.07880 5005 ft 188 kts 147°
2026-04-23 22:09 -7.57366 -39.07239 5001 ft 188 kts 147°
2026-04-23 22:09 -7.58513 -39.06595 5000 ft 187 kts 147°
2026-04-23 22:10 -7.59651 -39.05956 4999 ft 187 kts 147°
2026-04-23 22:10 -7.60785 -39.05320 4997 ft 187 kts 147°
2026-04-23 22:10 -7.61935 -39.04675 4998 ft 187 kts 147°
2026-04-23 22:10 -7.63080 -39.04031 4997 ft 187 kts 147°
2026-04-23 22:11 -7.64232 -39.03384 4999 ft 187 kts 147°
2026-04-23 22:11 -7.65377 -39.02741 4999 ft 187 kts 147°
2026-04-23 22:11 -7.66521 -39.02098 5000 ft 187 kts 147°
2026-04-23 22:11 -7.67673 -39.01450 4998 ft 188 kts 147°
2026-04-23 22:12 -7.68816 -39.00808 4997 ft 188 kts 147°
2026-04-23 22:12 -7.69978 -39.00155 4995 ft 188 kts 147°
2026-04-23 22:12 -7.71127 -38.99510 4995 ft 188 kts 147°
2026-04-23 22:12 -7.72278 -38.98863 4996 ft 187 kts 147°
2026-04-23 22:13 -7.73418 -38.98223 4994 ft 187 kts 147°
2026-04-23 22:13 -7.74562 -38.97580 4996 ft 187 kts 147°
2026-04-23 22:13 -7.75715 -38.96933 4996 ft 187 kts 147°
2026-04-23 22:13 -7.76855 -38.96292 4997 ft 187 kts 147°
2026-04-23 22:14 -7.77987 -38.95655 4998 ft 187 kts 147°
2026-04-23 22:14 -7.79141 -38.95007 5000 ft 186 kts 147°
2026-04-23 22:14 -7.80281 -38.94367 4999 ft 186 kts 147°
2026-04-23 22:14 -7.81414 -38.93730 4999 ft 186 kts 147°
2026-04-23 22:15 -7.82556 -38.93087 5001 ft 186 kts 147°
2026-04-23 22:15 -7.83672 -38.92461 5001 ft 187 kts 147°
2026-04-23 22:15 -7.84846 -38.91801 5002 ft 186 kts 147°
2026-04-23 22:15 -7.86007 -38.91183 4998 ft 188 kts 155°
2026-04-23 22:16 -7.87301 -38.90847 5004 ft 189 kts 163°
2026-04-23 22:16 -7.88589 -38.90566 5004 ft 189 kts 163°
2026-04-23 22:16 -7.89891 -38.90282 5003 ft 189 kts 163°
2026-04-23 22:16 -7.91196 -38.89999 5004 ft 189 kts 163°
2026-04-23 22:17 -7.92507 -38.89715 5003 ft 189 kts 163°
2026-04-23 22:17 -7.93808 -38.89433 5003 ft 189 kts 163°
2026-04-23 22:17 -7.95112 -38.89151 5004 ft 189 kts 163°
2026-04-23 22:17 -7.96390 -38.88874 5003 ft 189 kts 163°
2026-04-23 22:18 -7.97691 -38.88593 5004 ft 189 kts 163°
2026-04-23 22:18 -7.98990 -38.88313 5006 ft 189 kts 163°
2026-04-23 22:18 -8.00285 -38.88034 5005 ft 189 kts 163°
2026-04-23 22:18 -8.01597 -38.87749 5005 ft 189 kts 163°
2026-04-23 22:19 -8.02903 -38.87468 5006 ft 189 kts 163°
2026-04-23 22:19 -8.04206 -38.87188 5007 ft 189 kts 163°
2026-04-23 22:19 -8.05518 -38.86906 5014 ft 189 kts 163°
2026-04-23 22:19 -8.06817 -38.86626 5019 ft 189 kts 163°
2026-04-23 22:20 -8.08118 -38.86346 5023 ft 189 kts 163°
2026-04-23 22:20 -8.09435 -38.86063 5029 ft 189 kts 163°
2026-04-23 22:20 -8.10736 -38.85782 5031 ft 189 kts 163°
2026-04-23 22:20 -8.12060 -38.85496 5032 ft 189 kts 163°
2026-04-23 22:21 -8.13192 -38.85253 5033 ft 190 kts 163°
2026-04-23 22:21 -8.14522 -38.84966 5035 ft 190 kts 163°
2026-04-23 22:21 -8.15827 -38.84685 5036 ft 190 kts 163°
2026-04-23 22:21 -8.17142 -38.84401 5037 ft 190 kts 163°
2026-04-23 22:22 -8.18471 -38.84115 5037 ft 190 kts 163°
2026-04-23 22:22 -8.19776 -38.83833 5037 ft 191 kts 163°
2026-04-23 22:22 -8.21096 -38.83549 5040 ft 191 kts 163°
2026-04-23 22:22 -8.22411 -38.83265 5040 ft 191 kts 163°
2026-04-23 22:23 -8.23738 -38.82980 5042 ft 191 kts 163°
2026-04-23 22:23 -8.25053 -38.82696 5043 ft 191 kts 163°
2026-04-23 22:23 -8.26366 -38.82412 5041 ft 191 kts 163°
2026-04-23 22:23 -8.27681 -38.82129 5041 ft 191 kts 163°
2026-04-23 22:24 -8.29007 -38.81844 5038 ft 191 kts 163°
2026-04-23 22:24 -8.30291 -38.81568 5040 ft 190 kts 163°
2026-04-23 22:24 -8.31540 -38.81299 5051 ft 191 kts 163°
2026-04-23 22:24 -8.32863 -38.81015 5038 ft 192 kts 163°
2026-04-23 22:25 -8.34200 -38.80727 5027 ft 192 kts 163°
2026-04-23 22:25 -8.35508 -38.80446 5028 ft 191 kts 163°
2026-04-23 22:25 -8.36829 -38.80162 5024 ft 191 kts 163°
2026-04-23 22:25 -8.38146 -38.79879 5018 ft 191 kts 163°
2026-04-23 22:26 -8.39477 -38.79592 5012 ft 192 kts 163°
2026-04-23 22:26 -8.40802 -38.79308 5009 ft 192 kts 163°
2026-04-23 22:26 -8.42137 -38.79021 5007 ft 192 kts 163°
2026-04-23 22:26 -8.43449 -38.78739 5007 ft 192 kts 163°
2026-04-23 22:27 -8.44772 -38.78454 5007 ft 191 kts 163°
2026-04-23 22:27 -8.46099 -38.78169 5006 ft 191 kts 163°
2026-04-23 22:27 -8.47414 -38.77885 5004 ft 191 kts 163°
2026-04-23 22:27 -8.48746 -38.77599 5001 ft 191 kts 163°
2026-04-23 22:28 -8.50007 -38.77328 4997 ft 191 kts 163°
2026-04-23 22:28 -8.51315 -38.77046 4994 ft 191 kts 164°
2026-04-23 22:28 -8.52635 -38.76762 4993 ft 191 kts 163°
2026-04-23 22:28 -8.53949 -38.76480 4992 ft 191 kts 163°
2026-04-23 22:29 -8.55257 -38.76198 4993 ft 191 kts 163°
2026-04-23 22:29 -8.56579 -38.75914 4994 ft 191 kts 163°
2026-04-23 22:29 -8.57878 -38.75634 4993 ft 191 kts 163°
2026-04-23 22:29 -8.59207 -38.75348 4992 ft 191 kts 163°
2026-04-23 22:30 -8.60521 -38.75065 4990 ft 191 kts 163°
2026-04-23 22:30 -8.61839 -38.74781 4990 ft 191 kts 163°
2026-04-23 22:30 -8.63146 -38.74500 4990 ft 191 kts 163°
2026-04-23 22:30 -8.64469 -38.74215 4990 ft 191 kts 164°
2026-04-23 22:31 -8.65798 -38.73929 4990 ft 191 kts 163°
2026-04-23 22:31 -8.67111 -38.73646 4989 ft 191 kts 164°
2026-04-23 22:31 -8.68431 -38.73362 4988 ft 191 kts 163°
2026-04-23 22:31 -8.69750 -38.73077 4987 ft 191 kts 163°
2026-04-23 22:32 -8.71078 -38.72792 4989 ft 191 kts 164°
2026-04-23 22:32 -8.72397 -38.72507 4989 ft 191 kts 163°
2026-04-23 22:32 -8.73712 -38.72224 4990 ft 191 kts 163°
2026-04-23 22:32 -8.75044 -38.71938 4991 ft 191 kts 163°
2026-04-23 22:33 -8.76353 -38.71655 4991 ft 191 kts 163°
2026-04-23 22:33 -8.77669 -38.71372 4990 ft 191 kts 163°
2026-04-23 22:33 -8.78997 -38.71085 4990 ft 192 kts 163°
2026-04-23 22:33 -8.80311 -38.70802 4990 ft 192 kts 164°
2026-04-23 22:34 -8.81604 -38.70524 4992 ft 192 kts 163°
2026-04-23 22:34 -8.82931 -38.70238 4992 ft 192 kts 164°
2026-04-23 22:34 -8.84270 -38.69949 4993 ft 192 kts 163°
2026-04-23 22:34 -8.85607 -38.69661 4995 ft 192 kts 163°
2026-04-23 22:35 -8.86928 -38.69376 4998 ft 192 kts 163°
2026-04-23 22:35 -8.88214 -38.69098 5001 ft 191 kts 164°
2026-04-23 22:35 -8.89501 -38.68820 5004 ft 191 kts 163°
2026-04-23 22:35 -8.90756 -38.68549 5005 ft 191 kts 164°
2026-04-23 22:36 -8.92070 -38.68265 5009 ft 191 kts 163°
2026-04-23 22:36 -8.93361 -38.67986 5010 ft 191 kts 163°
2026-04-23 22:36 -8.94690 -38.67699 5009 ft 191 kts 163°
2026-04-23 22:36 -8.96008 -38.67414 5011 ft 191 kts 163°
2026-04-23 22:37 -8.97330 -38.67128 5009 ft 192 kts 164°
2026-04-23 22:37 -8.98645 -38.66844 5010 ft 191 kts 164°
2026-04-23 22:37 -8.99974 -38.66557 5011 ft 192 kts 163°
2026-04-23 22:37 -9.01309 -38.66269 5010 ft 192 kts 163°
2026-04-23 22:38 -9.02623 -38.65984 5008 ft 192 kts 163°
2026-04-23 22:38 -9.03952 -38.65697 5006 ft 192 kts 164°
2026-04-23 22:38 -9.05265 -38.65413 5005 ft 192 kts 164°
2026-04-23 22:38 -9.06591 -38.65126 5009 ft 192 kts 164°
2026-04-23 22:39 -9.07895 -38.64845 5012 ft 192 kts 164°
2026-04-23 22:39 -9.09213 -38.64560 5012 ft 192 kts 164°
2026-04-23 22:39 -9.10536 -38.64274 5015 ft 191 kts 163°
2026-04-23 22:39 -9.11870 -38.63985 5016 ft 192 kts 164°
2026-04-23 22:40 -9.13136 -38.63711 5017 ft 192 kts 163°
2026-04-23 22:40 -9.14448 -38.63427 5013 ft 192 kts 163°
2026-04-23 22:40 -9.17105 -38.62853 5015 ft 193 kts 164°
2026-04-23 22:41 -9.18428 -38.62566 5015 ft 193 kts 164°
2026-04-23 22:41 -9.19733 -38.62284 5014 ft 193 kts 163°
2026-04-23 22:41 -9.21073 -38.61994 5014 ft 193 kts 163°
2026-04-23 22:41 -9.22401 -38.61707 5012 ft 192 kts 163°
2026-04-23 22:42 -9.23716 -38.61422 5008 ft 192 kts 163°
2026-04-23 22:42 -9.25047 -38.61134 5008 ft 192 kts 164°
2026-04-23 22:42 -9.26357 -38.60851 5015 ft 192 kts 164°
2026-04-23 22:42 -9.27671 -38.60566 5020 ft 192 kts 164°
2026-04-23 22:43 -9.28986 -38.60281 5021 ft 192 kts 164°
2026-04-23 22:43 -9.30306 -38.59996 5021 ft 192 kts 164°
2026-04-23 22:43 -9.31614 -38.59713 5022 ft 192 kts 164°
2026-04-23 22:43 -9.32933 -38.59428 5023 ft 192 kts 163°
2026-04-23 22:44 -9.34258 -38.59140 5021 ft 192 kts 163°
2026-04-23 22:44 -9.35580 -38.58854 5017 ft 192 kts 163°
2026-04-23 22:44 -9.36861 -38.58577 5016 ft 192 kts 164°
2026-04-23 22:44 -9.38180 -38.58290 5014 ft 192 kts 164°
2026-04-23 22:45 -9.39503 -38.58004 5015 ft 193 kts 164°
2026-04-23 22:45 -9.40825 -38.57718 5017 ft 192 kts 164°
2026-04-23 22:45 -9.42142 -38.57433 5020 ft 192 kts 164°
2026-04-23 22:45 -9.43485 -38.57142 5017 ft 193 kts 164°
2026-04-23 22:46 -9.44807 -38.56855 5017 ft 193 kts 164°
2026-04-23 22:46 -9.46123 -38.56570 5016 ft 192 kts 164°
2026-04-23 22:46 -9.47447 -38.56283 5013 ft 193 kts 164°
2026-04-23 22:46 -9.48764 -38.55996 5014 ft 192 kts 164°
2026-04-23 22:47 -9.50086 -38.55708 5012 ft 192 kts 164°
2026-04-23 22:47 -9.51398 -38.55422 5015 ft 192 kts 163°
2026-04-23 22:47 -9.52727 -38.55133 5016 ft 192 kts 163°
2026-04-23 22:47 -9.54045 -38.54845 5016 ft 192 kts 163°
2026-04-23 22:48 -9.55372 -38.54556 5014 ft 192 kts 163°
2026-04-23 22:48 -9.56687 -38.54269 5014 ft 192 kts 163°
2026-04-23 22:48 -9.58016 -38.53979 5015 ft 192 kts 163°
2026-04-23 22:48 -9.59322 -38.53695 5014 ft 192 kts 163°
2026-04-23 22:49 -9.60650 -38.53405 5014 ft 192 kts 163°
2026-04-23 22:49 -9.61978 -38.53115 5014 ft 192 kts 163°
2026-04-23 22:49 -9.63318 -38.52823 5015 ft 192 kts 163°
2026-04-23 22:49 -9.64621 -38.52539 5014 ft 192 kts 163°
2026-04-23 22:50 -9.65938 -38.52252 5015 ft 192 kts 163°
2026-04-23 22:50 -9.67282 -38.51958 5015 ft 192 kts 163°
2026-04-23 22:50 -9.68601 -38.51671 5013 ft 192 kts 163°
2026-04-23 22:50 -9.69918 -38.51384 5014 ft 192 kts 163°
2026-04-23 22:51 -9.71187 -38.51106 5016 ft 192 kts 163°
2026-04-23 22:51 -9.72502 -38.50819 5017 ft 193 kts 164°
2026-04-23 22:51 -9.73846 -38.50526 5013 ft 193 kts 163°
2026-04-23 22:51 -9.75180 -38.50235 5011 ft 193 kts 163°
2026-04-23 22:52 -9.76496 -38.49948 5011 ft 193 kts 163°
2026-04-23 22:52 -9.77834 -38.49656 5011 ft 193 kts 163°
2026-04-23 22:52 -9.79166 -38.49365 5010 ft 193 kts 163°
2026-04-23 22:52 -9.80484 -38.49078 5011 ft 193 kts 163°
2026-04-23 22:53 -9.81814 -38.48787 5011 ft 193 kts 163°
2026-04-23 22:53 -9.83124 -38.48501 5014 ft 193 kts 163°
2026-04-23 22:53 -9.84450 -38.48212 5018 ft 193 kts 163°
2026-04-23 22:53 -9.85779 -38.47922 5021 ft 193 kts 163°
2026-04-23 22:54 -9.87088 -38.47636 5026 ft 192 kts 163°
2026-04-23 22:54 -9.88410 -38.47347 5031 ft 193 kts 163°
2026-04-23 22:54 -9.89741 -38.47056 5031 ft 193 kts 163°
2026-04-23 22:54 -9.91064 -38.46767 5032 ft 193 kts 163°
2026-04-23 22:55 -9.92372 -38.46482 5035 ft 193 kts 163°
2026-04-23 22:55 -9.93713 -38.46189 5031 ft 193 kts 163°
2026-04-23 22:55 -9.95037 -38.45899 5028 ft 193 kts 163°
2026-04-23 22:55 -9.96361 -38.45610 5026 ft 193 kts 164°
2026-04-23 22:56 -9.97681 -38.45322 5026 ft 193 kts 163°
2026-04-23 22:56 -9.99002 -38.45033 5024 ft 193 kts 163°
2026-04-23 22:56 -10.00330 -38.44743 5025 ft 193 kts 163°
2026-04-23 22:56 -10.01664 -38.44452 5025 ft 193 kts 163°
2026-04-23 22:57 -10.02977 -38.44165 5027 ft 193 kts 163°
2026-04-23 22:57 -10.04306 -38.43874 5028 ft 193 kts 163°
2026-04-23 22:57 -10.05646 -38.43581 5028 ft 193 kts 163°
2026-04-23 22:57 -10.06974 -38.43291 5029 ft 193 kts 163°
2026-04-23 22:58 -10.08295 -38.43002 5029 ft 194 kts 163°
2026-04-23 22:58 -10.09624 -38.42711 5030 ft 194 kts 163°
2026-04-23 22:58 -10.10957 -38.42419 5033 ft 194 kts 164°
2026-04-23 22:58 -10.12310 -38.42124 5033 ft 194 kts 163°
2026-04-23 22:59 -10.13651 -38.41830 5032 ft 194 kts 164°
2026-04-23 22:59 -10.14982 -38.41539 5033 ft 194 kts 163°
2026-04-23 22:59 -10.16311 -38.41249 5033 ft 194 kts 163°
2026-04-23 22:59 -10.17629 -38.40960 5035 ft 194 kts 163°
2026-04-23 23:00 -10.18963 -38.40669 5038 ft 194 kts 163°
2026-04-23 23:00 -10.20288 -38.40379 5038 ft 194 kts 163°
2026-04-23 23:00 -10.21617 -38.40088 5039 ft 194 kts 163°
2026-04-23 23:00 -10.22944 -38.39797 5040 ft 194 kts 163°
2026-04-23 23:01 -10.24291 -38.39502 5042 ft 194 kts 163°
2026-04-23 23:01 -10.25619 -38.39212 5040 ft 194 kts 163°
2026-04-23 23:01 -10.26953 -38.38919 5038 ft 194 kts 164°
2026-04-23 23:01 -10.28323 -38.38822 5035 ft 198 kts 179°
2026-04-23 23:02 -10.29703 -38.38937 5043 ft 198 kts 180°
2026-04-23 23:02 -10.31100 -38.39062 5043 ft 199 kts 180°
2026-04-23 23:02 -10.32491 -38.39186 5044 ft 199 kts 180°
2026-04-23 23:02 -10.33874 -38.39311 5046 ft 199 kts 180°
2026-04-23 23:03 -10.35267 -38.39436 5048 ft 199 kts 180°
2026-04-23 23:03 -10.36659 -38.39561 5046 ft 199 kts 180°
2026-04-23 23:03 -10.38049 -38.39687 5042 ft 199 kts 180°
2026-04-23 23:03 -10.39438 -38.39813 5040 ft 199 kts 180°
2026-04-23 23:04 -10.40832 -38.39939 5038 ft 199 kts 180°
2026-04-23 23:04 -10.42220 -38.40064 5039 ft 199 kts 180°
2026-04-23 23:04 -10.43614 -38.40190 5039 ft 199 kts 180°
2026-04-23 23:04 -10.45005 -38.40316 5039 ft 199 kts 180°
2026-04-23 23:05 -10.46392 -38.40442 5041 ft 199 kts 180°
2026-04-23 23:05 -10.47785 -38.40568 5041 ft 199 kts 180°
2026-04-23 23:05 -10.49168 -38.40693 5041 ft 199 kts 180°
2026-04-23 23:05 -10.50571 -38.40820 5040 ft 199 kts 180°
2026-04-23 23:06 -10.51950 -38.40945 5038 ft 199 kts 180°
2026-04-23 23:06 -10.53351 -38.41072 5038 ft 199 kts 180°
2026-04-23 23:06 -10.54742 -38.41198 5038 ft 199 kts 180°
2026-04-23 23:06 -10.56128 -38.41323 5038 ft 199 kts 180°
2026-04-23 23:07 -10.57539 -38.41451 5037 ft 199 kts 180°
2026-04-23 23:07 -10.58932 -38.41577 5038 ft 199 kts 180°
2026-04-23 23:07 -10.60317 -38.41703 5037 ft 199 kts 180°
2026-04-23 23:07 -10.61721 -38.41830 5037 ft 199 kts 180°
2026-04-23 23:08 -10.63106 -38.41956 5038 ft 199 kts 180°
2026-04-23 23:08 -10.64504 -38.42082 5037 ft 199 kts 180°
2026-04-23 23:08 -10.65897 -38.42209 5036 ft 199 kts 180°
2026-04-23 23:08 -10.67279 -38.42334 5036 ft 199 kts 180°
2026-04-23 23:09 -10.68695 -38.42462 5035 ft 199 kts 180°
2026-04-23 23:09 -10.70079 -38.42588 5035 ft 199 kts 180°
2026-04-23 23:09 -10.71472 -38.42714 5035 ft 199 kts 180°
2026-04-23 23:09 -10.72876 -38.42841 5035 ft 199 kts 180°
2026-04-23 23:10 -10.74276 -38.42968 5035 ft 199 kts 180°
2026-04-23 23:10 -10.75666 -38.43094 5036 ft 199 kts 180°
2026-04-23 23:10 -10.77067 -38.43221 5033 ft 199 kts 180°
2026-04-23 23:10 -10.78464 -38.43348 5033 ft 199 kts 180°
2026-04-23 23:11 -10.79863 -38.43475 5033 ft 199 kts 180°
2026-04-23 23:11 -10.81246 -38.43601 5031 ft 200 kts 180°
2026-04-23 23:11 -10.82661 -38.43729 5032 ft 200 kts 180°
2026-04-23 23:11 -10.84047 -38.43854 5032 ft 200 kts 180°
2026-04-23 23:12 -10.85440 -38.43981 5032 ft 200 kts 180°
2026-04-23 23:12 -10.86833 -38.44107 5030 ft 200 kts 180°
2026-04-23 23:12 -10.88235 -38.44235 5031 ft 200 kts 180°
2026-04-23 23:12 -10.89640 -38.44362 5028 ft 200 kts 180°
2026-04-23 23:13 -10.91034 -38.44488 5027 ft 200 kts 180°
2026-04-23 23:13 -10.92430 -38.44615 5027 ft 200 kts 180°
2026-04-23 23:13 -10.93839 -38.44743 5027 ft 200 kts 180°
2026-04-23 23:13 -10.95245 -38.44871 5027 ft 200 kts 180°
2026-04-23 23:14 -10.96642 -38.44998 5026 ft 200 kts 180°
2026-04-23 23:14 -10.98048 -38.45126 5024 ft 200 kts 180°
2026-04-23 23:14 -10.99441 -38.45253 5024 ft 200 kts 180°
2026-04-23 23:14 -11.00846 -38.45380 5023 ft 200 kts 180°
2026-04-23 23:15 -11.02257 -38.45508 5022 ft 200 kts 180°
2026-04-23 23:15 -11.03652 -38.45635 5022 ft 200 kts 180°
2026-04-23 23:15 -11.05059 -38.45762 5021 ft 200 kts 180°
2026-04-23 23:15 -11.06456 -38.45889 5020 ft 199 kts 180°
2026-04-23 23:16 -11.07852 -38.46016 5023 ft 199 kts 180°
2026-04-23 23:16 -11.09244 -38.46143 5030 ft 200 kts 180°
2026-04-23 23:16 -11.10667 -38.46273 5028 ft 200 kts 180°
2026-04-23 23:16 -11.12001 -38.46394 5024 ft 200 kts 180°
2026-04-23 23:17 -11.13441 -38.46525 5023 ft 200 kts 180°
2026-04-23 23:17 -11.14848 -38.46653 5027 ft 200 kts 180°
2026-04-23 23:17 -11.16278 -38.46783 5023 ft 200 kts 180°
2026-04-23 23:17 -11.17684 -38.46910 5022 ft 200 kts 180°
2026-04-23 23:18 -11.19080 -38.47037 5026 ft 200 kts 180°
2026-04-23 23:18 -11.20482 -38.47165 5029 ft 200 kts 180°
2026-04-23 23:18 -11.21893 -38.47293 5029 ft 200 kts 180°
2026-04-23 23:18 -11.23282 -38.47420 5026 ft 201 kts 180°
2026-04-23 23:19 -11.24701 -38.47549 5024 ft 201 kts 180°
2026-04-23 23:19 -11.26101 -38.47677 5023 ft 201 kts 180°
2026-04-23 23:19 -11.27509 -38.47805 5024 ft 200 kts 180°
2026-04-23 23:19 -11.28905 -38.47932 5026 ft 200 kts 180°
2026-04-23 23:20 -11.30301 -38.48059 5026 ft 201 kts 180°
2026-04-23 23:20 -11.31715 -38.48188 5027 ft 201 kts 180°
2026-04-23 23:20 -11.33048 -38.48309 5028 ft 200 kts 180°
2026-04-23 23:20 -11.34515 -38.48443 5029 ft 200 kts 180°
2026-04-23 23:21 -11.35932 -38.48572 5030 ft 200 kts 180°
2026-04-23 23:21 -11.37321 -38.48698 5029 ft 200 kts 180°
2026-04-23 23:21 -11.38733 -38.48827 5030 ft 200 kts 180°
2026-04-23 23:21 -11.40120 -38.48953 5031 ft 200 kts 180°
2026-04-23 23:22 -11.41525 -38.49081 5028 ft 200 kts 180°
2026-04-23 23:22 -11.42923 -38.49209 5031 ft 200 kts 180°
2026-04-23 23:22 -11.44315 -38.49335 5036 ft 199 kts 180°
2026-04-23 23:22 -11.45715 -38.49463 5038 ft 199 kts 180°
2026-04-23 23:23 -11.47103 -38.49589 5040 ft 199 kts 180°
2026-04-23 23:23 -11.48513 -38.49718 5040 ft 199 kts 180°
2026-04-23 23:23 -11.49906 -38.49845 5041 ft 199 kts 180°
2026-04-23 23:23 -11.51301 -38.49972 5040 ft 200 kts 180°
2026-04-23 23:24 -11.52676 -38.50097 5041 ft 200 kts 180°
2026-04-23 23:24 -11.54087 -38.50226 5040 ft 200 kts 180°
2026-04-23 23:24 -11.55490 -38.50354 5039 ft 200 kts 180°
2026-04-23 23:24 -11.56896 -38.50482 5038 ft 200 kts 180°
2026-04-23 23:25 -11.58297 -38.50610 5038 ft 200 kts 180°
2026-04-23 23:25 -11.59706 -38.50739 5040 ft 200 kts 180°
2026-04-23 23:25 -11.61111 -38.50867 5043 ft 200 kts 180°
2026-04-23 23:25 -11.62495 -38.50993 5043 ft 199 kts 180°
2026-04-23 23:26 -11.63901 -38.51121 5043 ft 199 kts 180°
2026-04-23 23:26 -11.65303 -38.51249 5044 ft 199 kts 180°
2026-04-23 23:26 -11.66685 -38.51376 5044 ft 199 kts 180°
2026-04-23 23:26 -11.68074 -38.51502 5044 ft 199 kts 180°
2026-04-23 23:27 -11.69476 -38.51630 5044 ft 199 kts 180°
2026-04-23 23:27 -11.70808 -38.51725 5045 ft 199 kts 179°
2026-04-23 23:27 -11.72187 -38.51815 5043 ft 199 kts 179°
2026-04-23 23:27 -11.73597 -38.51908 5044 ft 199 kts 178°
2026-04-23 23:28 -11.74996 -38.52000 5042 ft 199 kts 179°
2026-04-23 23:28 -11.76385 -38.52091 5042 ft 199 kts 178°
2026-04-23 23:28 -11.77798 -38.52183 5045 ft 199 kts 178°
2026-04-23 23:28 -11.79196 -38.52275 5047 ft 199 kts 178°
2026-04-23 23:29 -11.80587 -38.52365 5045 ft 199 kts 178°
2026-04-23 23:29 -11.81982 -38.52457 5044 ft 199 kts 178°
2026-04-23 23:29 -11.83337 -38.52546 5047 ft 199 kts 178°
2026-04-23 23:29 -11.84739 -38.52638 5047 ft 199 kts 178°
2026-04-23 23:30 -11.86129 -38.52728 5046 ft 199 kts 178°
2026-04-23 23:30 -11.87526 -38.52819 5047 ft 199 kts 179°
2026-04-23 23:30 -11.88910 -38.52910 5047 ft 199 kts 179°
2026-04-23 23:30 -11.90315 -38.53002 5049 ft 199 kts 178°
2026-04-23 23:31 -11.91711 -38.53094 5049 ft 199 kts 179°
2026-04-23 23:31 -11.93111 -38.53185 5048 ft 199 kts 178°
2026-04-23 23:31 -11.94523 -38.53278 5050 ft 199 kts 178°
2026-04-23 23:31 -11.95905 -38.53368 5049 ft 199 kts 178°
2026-04-23 23:32 -11.97296 -38.53459 5048 ft 199 kts 178°
2026-04-23 23:32 -11.98695 -38.53551 5049 ft 199 kts 178°
2026-04-23 23:32 -12.00094 -38.53642 5051 ft 199 kts 178°
2026-04-23 23:32 -12.01469 -38.53732 5049 ft 199 kts 178°
2026-04-23 23:33 -12.02857 -38.53823 5048 ft 198 kts 178°
2026-04-23 23:33 -12.04252 -38.53915 5047 ft 198 kts 178°
2026-04-23 23:33 -12.05631 -38.54004 5046 ft 198 kts 178°
2026-04-23 23:33 -12.07044 -38.54097 5048 ft 199 kts 178°
2026-04-23 23:34 -12.08418 -38.54187 5046 ft 198 kts 178°
2026-04-23 23:34 -12.09813 -38.54279 5042 ft 199 kts 178°
2026-04-23 23:34 -12.11218 -38.54371 5045 ft 199 kts 178°
2026-04-23 23:34 -12.12625 -38.54464 5045 ft 199 kts 178°
2026-04-23 23:35 -12.14009 -38.54554 5043 ft 199 kts 178°
2026-04-23 23:35 -12.15414 -38.54646 5041 ft 199 kts 178°
2026-04-23 23:35 -12.16809 -38.54737 5042 ft 199 kts 178°
2026-04-23 23:35 -12.18213 -38.54829 5042 ft 199 kts 178°
2026-04-23 23:36 -12.19557 -38.54918 5041 ft 200 kts 178°
2026-04-23 23:36 -12.21002 -38.55012 5039 ft 199 kts 178°
2026-04-23 23:36 -12.22398 -38.55104 5039 ft 199 kts 178°
2026-04-23 23:36 -12.23804 -38.55196 5039 ft 199 kts 178°
2026-04-23 23:37 -12.25191 -38.55287 5037 ft 199 kts 178°
2026-04-23 23:37 -12.26586 -38.55378 5034 ft 200 kts 178°
2026-04-23 23:37 -12.28003 -38.55471 5028 ft 200 kts 178°
2026-04-23 23:37 -12.29393 -38.55563 5027 ft 200 kts 178°
2026-04-23 23:38 -12.30778 -38.55653 5025 ft 200 kts 178°
2026-04-23 23:38 -12.32202 -38.55747 5030 ft 200 kts 178°
2026-04-23 23:38 -12.33595 -38.55838 5030 ft 200 kts 178°
2026-04-23 23:38 -12.35003 -38.55931 5026 ft 200 kts 178°
2026-04-23 23:39 -12.36394 -38.56021 5027 ft 200 kts 178°
2026-04-23 23:39 -12.37790 -38.56113 5029 ft 200 kts 178°
2026-04-23 23:39 -12.39197 -38.56206 5024 ft 200 kts 178°
2026-04-23 23:39 -12.40603 -38.56298 5024 ft 200 kts 178°
2026-04-23 23:40 -12.41988 -38.56389 5027 ft 200 kts 178°
2026-04-23 23:40 -12.43405 -38.56482 5024 ft 200 kts 178°
2026-04-23 23:40 -12.44811 -38.56575 5025 ft 200 kts 178°
2026-04-23 23:40 -12.46209 -38.56666 5030 ft 200 kts 178°
2026-04-23 23:41 -12.47603 -38.56758 5026 ft 200 kts 178°
2026-04-23 23:41 -12.49008 -38.56852 5020 ft 200 kts 178°
2026-04-23 23:41 -12.50419 -38.56947 5019 ft 200 kts 178°
2026-04-23 23:41 -12.51832 -38.57042 5022 ft 200 kts 178°
2026-04-23 23:42 -12.53212 -38.57133 5022 ft 200 kts 178°
2026-04-23 23:42 -12.54598 -38.57225 5023 ft 200 kts 178°
2026-04-23 23:42 -12.56017 -38.57318 5025 ft 200 kts 178°
2026-04-23 23:42 -12.57428 -38.57411 5028 ft 200 kts 178°
2026-04-23 23:43 -12.58836 -38.57504 5022 ft 200 kts 178°
2026-04-23 23:43 -12.60239 -38.57596 5016 ft 200 kts 178°
2026-04-23 23:43 -12.61650 -38.57689 5018 ft 199 kts 178°
2026-04-23 23:43 -12.63053 -38.57781 5020 ft 199 kts 178°
2026-04-23 23:44 -12.64466 -38.57874 5023 ft 200 kts 178°
2026-04-23 23:44 -12.65888 -38.57967 5022 ft 200 kts 178°
2026-04-23 23:44 -12.67292 -38.58060 5031 ft 200 kts 178°
2026-04-23 23:44 -12.68697 -38.58152 5026 ft 200 kts 178°
2026-04-23 23:45 -12.70095 -38.58244 5022 ft 200 kts 178°
2026-04-23 23:45 -12.71488 -38.58335 5029 ft 200 kts 178°
2026-04-23 23:45 -12.72902 -38.58408 5020 ft 198 kts 171°
2026-04-23 23:45 -12.74156 -38.57975 5022 ft 190 kts 150°
2026-04-23 23:46 -12.75347 -38.57353 5035 ft 190 kts 148°
2026-04-23 23:46 -12.76518 -38.56728 5032 ft 190 kts 148°
2026-04-23 23:46 -12.77706 -38.56092 5029 ft 191 kts 149°
2026-04-23 23:46 -12.78802 -38.55345 5006 ft 189 kts 139°
2026-04-23 23:47 -12.79867 -38.54494 4898 ft 194 kts 139°
2026-04-23 23:47 -12.80941 -38.53628 4811 ft 195 kts 138°
2026-04-23 23:47 -12.82006 -38.52763 4742 ft 196 kts 138°
2026-04-23 23:47 -12.83084 -38.51884 4643 ft 197 kts 139°
2026-04-23 23:48 -12.84168 -38.51002 4560 ft 198 kts 139°
2026-04-23 23:48 -12.85335 -38.50315 4458 ft 191 kts 165°
2026-04-23 23:48 -12.86664 -38.50403 4292 ft 190 kts 184°
2026-04-23 23:48 -12.87978 -38.50604 4028 ft 190 kts 182°
2026-04-23 23:49 -12.90614 -38.50753 3488 ft 188 kts 174°
2026-04-23 23:49 -12.91903 -38.50586 3235 ft 179 kts 150°
2026-04-23 23:49 -12.92690 -38.49678 3034 ft 169 kts 113°
2026-04-23 23:50 -12.93094 -38.48569 2905 ft 165 kts 109°
2026-04-23 23:50 -12.93229 -38.47411 2750 ft 164 kts 85°
2026-04-23 23:50 -12.93293 -38.46256 2591 ft 162 kts 101°
2026-04-23 23:50 -12.93295 -38.45109 2444 ft 163 kts 87°
2026-04-23 23:51 -12.93158 -38.43994 2298 ft 163 kts 83°
2026-04-23 23:51 -12.92958 -38.42812 2144 ft 154 kts 82°
2026-04-23 23:51 -12.92765 -38.41749 1977 ft 155 kts 82°
2026-04-23 23:51 -12.92608 -38.40673 1708 ft 146 kts 85°
2026-04-23 23:52 -12.92463 -38.39702 1250 ft 126 kts 79°
2026-04-23 23:52 -12.92225 -38.38904 976 ft 116 kts 73°
2026-04-23 23:52 -12.92005 -38.38091 748 ft 118 kts 81°
2026-04-23 23:52 -12.91867 -38.37290 636 ft 111 kts 81°
2026-04-23 23:53 -12.91706 -38.36494 539 ft 119 kts 81°
2026-04-23 23:53 -12.91563 -38.35757 413 ft 115 kts 81°
2026-04-23 23:53 -12.91378 -38.34865 257 ft 112 kts 80°
2026-04-23 23:53 -12.91216 -38.34092 149 ft 110 kts 79°
2026-04-23 23:54 -12.91066 -38.33316 49 ft 108 kts 79°
2026-04-23 23:54 -12.90928 -38.32602 38 ft 85 kts 85°
2026-04-23 23:54 -12.90857 -38.32205 43 ft 40 kts 82°
2026-04-23 23:54 -12.90806 -38.31962 47 ft 33 kts 78°
2026-04-23 23:55 -12.90769 -38.31778 50 ft 13 kts 93°
2026-04-23 23:55 -12.90844 -38.31714 51 ft 15 kts 167°
2026-04-23 23:55 -12.90925 -38.31789 49 ft 23 kts 258°
2026-04-23 23:55 -12.90950 -38.31903 47 ft 1 kts 256°
2026-04-23 23:56 -12.90962 -38.31964 46 ft 15 kts 260°
2026-04-23 23:56 -12.90990 -38.32111 43 ft 25 kts 258°
2026-04-23 23:56 -12.91025 -38.32283 41 ft 26 kts 259°
2026-04-23 23:56 -12.91065 -38.32473 38 ft 27 kts 258°
2026-04-23 23:57 -12.91099 -38.32648 38 ft 24 kts 258°
2026-04-23 23:57 -12.91132 -38.32805 37 ft 20 kts 261°
2026-04-23 23:57 -12.91157 -38.32921 37 ft 13 kts 256°
2026-04-23 23:57 -12.91183 -38.33046 37 ft 20 kts 257°
2026-04-23 23:58 -12.91208 -38.33118 37 ft 6 kts 218°
2026-04-23 23:58 -12.91250 -38.33109 37 ft 2 kts 126°
2026-04-23 23:58 -12.91251 -38.33058 37 ft 7 kts 74°
2026-04-23 23:58 -12.91248 -38.33046 37 ft 0 kts 75°
2026-04-23 23:59 -12.91246 -38.33021 37 ft 3 kts 118°
2026-04-23 23:59 -12.91276 -38.33017 37 ft 8 kts 176°
2026-04-23 23:59 -12.91317 -38.33007 38 ft 0 kts 168°